Tracking 22879 objects as of 21-Apr-2021
HD Live streaming from Space Station
objects crossing your sky now

SPACEBEE-6

Track SPACEBEE-6 now!
10-day predictions


NORAD ID: 43818
Int'l Code: 2018-099BN
Perigee: 576.7 km
Apogee: 593.6 km
Inclination: 97.7 °
Period: 96.2 minutes
Semi major axis: 6956 km
RCS: Unknown
Launch date: December 3, 2018
Source: United States (US)
Launch site: AIR FORCE WESTERN TEST RANGE (AFWTR)
aabbcc
Your satellite tracking list
Your tracking list is empty




NASA's NSSDC Master Catalog

Two Line Element Set (TLE):
1 43818U 18099BN  21111.41741154  .00001787  00000-0  16259-3 0  9993
2 43818  97.6742 184.2287 0012168 222.2540 137.7744 14.96397963129695
Source of the keplerian elements: AFSPC